User: anonymous   Login
Location: Unspecified
(0.0000°N, 0.0000°E)
Time: 03:43:32
(UTC+00:00)
Language:

USA 186 - Orbit

View from above orbital plane
View from above orbital plane
View from above satellite
View from above satellite

Ground track
Ground track

The orbit data is extracted from the following two-line orbital elements,

1 28888U 05042A   16241.07332276 0.00021000  00000-0  10417-3 0    01
2 28888  96.9029 278.2268 0147580 142.1655 217.8343 15.67586275    05
Epoch (UTC): 28 August 2016 01:45:35
Eccentricity: 0.0147580
inclination: 96.9029°
perigee height: 266 km
apogee height: 465 km
right ascension of ascending node: 278.2268°
argument of perigee: 142.1655°
revolutions per day: 15.67586275
mean anomaly at epoch: 217.8343°
orbit number at epoch: 0

The dashed part of the orbit path shows where the satellite is in the earth's shadow,  

DLR